Change the Weather History Date:

Saturday, April 5, 2014

  Actual Average (KDBQ) Record (KDBQ)
Temperature  
Mean Temperature 38 °F 44 °F  
Max Temperature 51 °F 54 °F 80 °F (1929)
Min Temperature 26 °F 34 °F 13 °F (1982)
Degree Days  
Heating Degree Days 26 21  
Month to date heating degree days 109  
Since 1 July heating degree days 6420  
Cooling Degree Days 0 0  
Month to date cooling degree days 0  
Year to date cooling degree days 0  
Moisture  
Dew Point 27 °F    
Average Humidity 65    
Maximum Humidity 95    
Minimum Humidity 36    
Precipitation  
Precipitation 0.00 in 0.11 in 2.11 in (1958)
Month to date precipitation 0.52  
Year to date precipitation 5.54  
Snow  
Snow 0.00 in 0.10 in - ()
Month to date snowfall 0.6  
Since 1 July snowfall 40.5  
Snow Depth -    
Sea Level Pressure  
Sea Level Pressure 30.13 in    
Wind  
Wind Speed 7 mph (SW)    
Max Wind Speed 13 mph    
Max Gust Speed 16 mph    
Visibility 9 miles    
Events      
T = Trace of Precipitation, MM = Missing Value Source: NWS Daily Summary

Daily Weather History Graph

Daily Weather History Graph

Search for Another Location

Airport or City:

Trip Planner

Search our weather history database for the weather conditions in past years. The results will help you decide how hot, cold, wet, or windy it might be!

Date:

Astronomy

Apr. 05, 2014 Rise Set
Actual Time 6:37 AM CDT 7:32 PM CDT
Civil Twilight 6:08 AM CDT 8:01 PM CDT
Nautical Twilight 5:34 AM CDT 8:35 PM CDT
Astronomical Twilight 4:58 AM CDT 9:11 PM CDT
Moon 10:40 AM CDT (4/5) 12:47 AM CDT (4/5)
Length of Visible Light 13h 52m
Length of Day
12h 55m
Waxing Crescent, 34% of the Moon is Illuminated
Apr 5
Waxing Crescent
Apr 7
First Quarter
Apr 15
Full
Apr 22
Last Quarter
Apr 29
New

Hourly Weather History & Observations

Time (CDT) Temp. Windchill Dew Point Humidity Pressure Visibility Wind Dir Wind Speed Gust Speed Precip Events Conditions
12:15 AM 34.7 °F 29.6 °F 28.2 °F 77% 30.05 in 10.0 mi WNW 5.8 mph - N/A   Overcast
12:35 AM 33.8 °F 28.6 °F 27.9 °F 79% 30.05 in 10.0 mi WNW 5.8 mph - N/A   Overcast
12:55 AM 32.2 °F 24.4 °F 27.3 °F 82% 30.06 in 10.0 mi West 9.2 mph - N/A   Scattered Clouds
1:15 AM 30.9 °F 22.8 °F 26.4 °F 83% 30.07 in 10.0 mi West 9.2 mph - N/A   Clear
1:35 AM 30.6 °F 23.1 °F 26.4 °F 85% 30.07 in 10.0 mi West 8.1 mph - N/A   Clear
1:55 AM 30.4 °F 22.9 °F 26.4 °F 85% 30.07 in 10.0 mi West 8.1 mph - N/A   Clear
2:15 AM 29.8 °F 21.5 °F 26.1 °F 86% 30.08 in 10.0 mi West 9.2 mph - N/A   Clear
2:35 AM 29.3 °F 21.5 °F 25.9 °F 87% 30.08 in 10.0 mi West 8.1 mph - N/A   Clear
2:55 AM 29.1 °F 20.6 °F 25.7 °F 87% 30.09 in 10.0 mi WSW 9.2 mph - N/A   Clear
3:15 AM 28.9 °F 21.1 °F 25.7 °F 88% 30.09 in 10.0 mi West 8.1 mph - N/A   Clear
3:35 AM 28.2 °F 22.0 °F 25.5 °F 90% 30.09 in 10.0 mi West 5.8 mph - N/A   Clear
3:55 AM 28.4 °F 23.3 °F 25.7 °F 90% 30.09 in 10.0 mi West 4.6 mph - N/A   Clear
4:15 AM 28.4 °F - 26.1 °F 91% 30.09 in 10.0 mi Calm Calm - N/A   Clear
4:35 AM 27.9 °F 21.5 °F 25.5 °F 91% 30.11 in 10.0 mi WSW 5.8 mph - N/A   Clear
4:55 AM 28.0 °F 21.7 °F 26.1 °F 92% 30.11 in 10.0 mi WSW 5.8 mph - N/A   Clear
5:15 AM 27.0 °F 21.6 °F 25.0 °F 92% 30.11 in 7.0 mi WSW 4.6 mph - N/A   Clear
5:35 AM 27.3 °F 22.0 °F 25.7 °F 94% 30.12 in 7.0 mi WSW 4.6 mph - N/A   Clear
5:55 AM 27.5 °F 23.6 °F 25.9 °F 94% 30.12 in 7.0 mi WSW 3.5 mph - N/A   Clear
6:15 AM 27.9 °F 22.6 °F 26.4 °F 94% 30.13 in 7.0 mi WSW 4.6 mph - N/A   Clear
6:35 AM 26.6 °F 21.2 °F 25.3 °F 95% 30.13 in 4.0 mi WSW 4.6 mph - N/A   Clear
6:55 AM 27.3 °F 23.4 °F 25.9 °F 94% 30.14 in 2.5 mi WSW 3.5 mph - N/A   Clear
7:35 AM 29.3 °F 24.3 °F 27.9 °F 94% 30.16 in 3.0 mi WSW 4.6 mph - N/A   Clear
7:55 AM 30.9 °F 26.2 °F 29.3 °F 94% 30.17 in 4.0 mi WSW 4.6 mph - N/A   Clear
8:15 AM 31.8 °F 25.4 °F 30.2 °F 94% 30.17 in 5.0 mi WSW 6.9 mph - N/A   Clear
8:35 AM 32.5 °F 27.1 °F 30.9 °F 94% 30.18 in 7.0 mi West 5.8 mph - N/A   Clear
8:55 AM 33.8 °F 29.6 °F 30.9 °F 89% 30.18 in 10.0 mi West 4.6 mph - N/A   Unknown
9:15 AM 35.2 °F - 31.3 °F 85% 30.19 in 10.0 mi Calm Calm - N/A   Clear
9:35 AM 36.7 °F - 31.5 °F 81% 30.19 in 10.0 mi Calm Calm - N/A   Clear
9:55 AM 38.3 °F - 31.5 °F 76% 30.19 in 10.0 mi Calm Calm - N/A   Clear
10:15 AM 40.1 °F 38.0 °F 30.2 °F 68% 30.19 in 10.0 mi SSW 3.5 mph - N/A   Clear
10:35 AM 41.2 °F 37.3 °F 27.7 °F 59% 30.19 in 10.0 mi WSW 5.8 mph - N/A   Clear
10:55 AM 43.0 °F 38.8 °F 27.3 °F 54% 30.19 in 10.0 mi SW 6.9 mph - N/A   Clear
11:15 AM 42.8 °F 40.1 °F 26.2 °F 52% 30.19 in 10.0 mi SW 4.6 mph - N/A   Clear
11:35 AM 43.9 °F 38.8 °F 25.9 °F 49% 30.19 in 10.0 mi South 9.2 mph - N/A   Clear
11:55 AM 45.0 °F 42.6 °F 25.7 °F 47% 30.19 in 10.0 mi South 4.6 mph - N/A   Clear
12:15 PM 45.3 °F 41.1 °F 25.3 °F 46% 30.19 in 10.0 mi South 8.1 mph - N/A   Clear
12:35 PM 46.8 °F - 27.5 °F 47% 30.18 in 10.0 mi SW 9.2 mph - N/A   Clear
12:55 PM 46.8 °F - 25.7 °F 44% 30.18 in 10.0 mi SW 9.2 mph - N/A   Clear
1:15 PM 47.3 °F - 24.4 °F 41% 30.18 in 10.0 mi SW 9.2 mph 16.1 mph N/A   Clear
1:35 PM 48.6 °F - 25.3 °F 40% 30.17 in 10.0 mi SSW 8.1 mph 16.1 mph N/A   Clear
1:55 PM 48.4 °F - 24.6 °F 39% 30.16 in 10.0 mi SSW 11.5 mph - N/A   Clear
2:15 PM 48.9 °F - 24.6 °F 39% 30.16 in 10.0 mi SSW 9.2 mph 16.1 mph N/A   Clear
2:35 PM 50.0 °F - 25.3 °F 38% 30.15 in 10.0 mi SW 10.4 mph - N/A   Clear
2:55 PM 50.2 °F - 24.4 °F 37% 30.14 in 10.0 mi WSW 9.2 mph - N/A   Clear
3:15 PM 51.1 °F - 25.9 °F 38% 30.13 in 10.0 mi SW 9.2 mph - N/A   Clear
3:35 PM 50.7 °F - 25.3 °F 37% 30.12 in 10.0 mi SW 5.8 mph 16.1 mph N/A   Clear
3:55 PM 50.4 °F - 24.6 °F 37% 30.12 in 10.0 mi SSW 9.2 mph 16.1 mph N/A   Clear
4:15 PM 50.7 °F - 24.8 °F 36% 30.12 in 10.0 mi SSW 12.7 mph - N/A   Clear
4:35 PM 50.9 °F - 25.2 °F 37% 30.11 in 10.0 mi SW 10.4 mph - N/A   Clear
4:55 PM 50.9 °F - 25.0 °F 36% 30.11 in 10.0 mi SW 6.9 mph - N/A   Clear
5:15 PM 51.1 °F - 25.7 °F 37% 30.11 in 10.0 mi SW 9.2 mph - N/A   Clear
5:35 PM 51.4 °F - 25.7 °F 37% 30.10 in 10.0 mi WSW 6.9 mph - N/A   Clear
5:55 PM 50.9 °F - 25.7 °F 38% 30.10 in 10.0 mi SW 8.1 mph - N/A   Clear
6:15 PM 50.5 °F - 26.2 °F 39% 30.09 in 10.0 mi South 8.1 mph - N/A   Clear
6:35 PM 49.8 °F - 26.4 °F 40% 30.09 in 10.0 mi SSW 9.2 mph - N/A   Clear
6:55 PM 48.6 °F - 26.6 °F 42% 30.09 in 10.0 mi SSW 8.1 mph - N/A   Clear
7:15 PM 45.3 °F 41.1 °F 30.0 °F 55% 30.09 in 10.0 mi South 8.1 mph - N/A   Clear
7:35 PM 43.2 °F 39.0 °F 28.9 °F 57% 30.09 in 10.0 mi South 6.9 mph - N/A   Clear
7:55 PM 42.1 °F 38.4 °F 27.7 °F 57% 30.10 in 10.0 mi South 5.8 mph - N/A   Clear
8:15 PM 39.9 °F 36.7 °F 27.5 °F 61% 30.11 in 10.0 mi South 4.6 mph - N/A   Clear
8:35 PM 39.7 °F 35.6 °F 27.1 °F 61% 30.11 in 10.0 mi South 5.8 mph - N/A   Clear
8:55 PM 39.4 °F 35.2 °F 26.6 °F 60% 30.11 in 10.0 mi South 5.8 mph - N/A   Clear
9:15 PM 40.8 °F 36.2 °F 25.9 °F 55% 30.11 in 10.0 mi South 6.9 mph - N/A   Clear
9:35 PM 40.8 °F 35.6 °F 26.1 °F 56% 30.11 in 10.0 mi South 8.1 mph - N/A   Clear
9:55 PM 39.6 °F 34.7 °F 26.8 °F 60% 30.11 in 10.0 mi SSE 6.9 mph - N/A   Clear
10:15 PM 38.8 °F 33.8 °F 26.4 °F 61% 30.11 in 10.0 mi SSE 6.9 mph - N/A   Clear
10:35 PM 39.2 °F 34.2 °F 26.2 °F 60% 30.11 in 10.0 mi SSE 6.9 mph - N/A   Clear
11:15 PM 36.3 °F 31.6 °F 25.9 °F 66% 30.11 in 10.0 mi SE 5.8 mph - N/A   Clear
11:35 PM 36.9 °F 30.7 °F 26.2 °F 65% 30.11 in 10.0 mi SSE 8.1 mph - N/A   Clear
11:55 PM 36.5 °F 30.3 °F 26.1 °F 66% 30.10 in 10.0 mi SSE 8.1 mph - N/A   Clear